Hourly Data Report for June 28, 2012

All times are specified in Local Standard Time (LST). Add 1 hour to adjust for Daylight Saving Time where and when it is observed.

MONCTON INTL A
NEW BRUNSWICK

46°06'44.000" N
64°40'43.000" W
70.70 m
8103201
71705
YQM

Download Data

Hourly Data (June 2012)
Hourly Data Report for June 28, 2012
Temp Definition
°C
Dew Point Temp Definition
°C
Rel Hum Definition
%
Wind Dir Definition
10's deg

Wind Spd Definition
km/h
Visibility Definition
km
Stn Press Definition
kPa
Hmdx Definition


Wind Chill Definition


Weather Definition


TIME
00:00 Legend Double Dagger 14.4 13.8 96 14 14 10.0 99.37     Rain
01:00 Legend Double Dagger 14.6 14.0 96 15 19 10.0 99.34     LegendNANA
02:00 Legend Double Dagger 14.6 14.0 96 16 19 10.0 99.33     Cloudy
03:00 Legend Double Dagger 14.5 13.9 96 15 22 10.0 99.29     LegendNANA
04:00 Legend Double Dagger 14.6 13.8 95 15 19 10.0 99.31     LegendNANA
05:00 Legend Double Dagger 14.7 13.9 95 16 16 10.0 99.32     Cloudy
06:00 Legend Double Dagger 15.1 14.3 95 16 13 10.0 99.32     LegendNANA
07:00 Legend Double Dagger 15.2 14.3 94 17 14 10.0 99.37     LegendNANA
08:00 Legend Double Dagger 15.7 14.6 93 20 15 10.0 99.37     Cloudy
09:00 Legend Double Dagger 18.3 15.0 81 21 21 10.0 99.36     LegendNANA
10:00 Legend Double Dagger 18.5 14.7 78 23 20 10.0 99.36     LegendNANA
11:00 Legend Double Dagger 18.9 14.4 75 24 21 10.0 99.40     Mostly Cloudy
12:00 Legend Double Dagger 21.5 14.3 63 22 15 10.0 99.36 25   LegendNANA
13:00 Legend Double Dagger 20.7 13.0 61 22 25 10.0 99.34     LegendNANA
14:00 Legend Double Dagger 21.3 14.1 63 24 24 10.0 99.31 25   Mostly Cloudy
15:00 Legend Double Dagger 21.7 14.5 63 22 21 10.0 99.29 25   LegendNANA
16:00 Legend Double Dagger 22.4 14.9 62 23 22 10.0 99.30 26   LegendNANA
17:00 Legend Double Dagger 19.4 15.7 79 23 26 10.0 99.31     Rain Showers
18:00 Legend Double Dagger 17.9 15.7 87 24 23 10.0 99.34     LegendNANA
19:00 Legend Double Dagger 17.6 16.3 92 23 19 10.0 99.37     LegendNANA
20:00 Legend Double Dagger 17.4 16.3 93 22 14 10.0 99.40     Mostly Cloudy
21:00 Legend Double Dagger 16.7 15.6 93 21 14 10.0 99.43     LegendNANA
22:00 Legend Double Dagger 15.7 14.9 95 21 11 10.0 99.47     LegendNANA
23:00 Legend Double Dagger 15.0 14.5 97 20 12 10.0 99.45     Mainly Clear

Notes on Data Quality.

Legend

  • E = Estimated
  • M = Missing
  • NA = Not Available
  • ‡ = Partner data that is not subject to review by the National Climate Archives
Date modified: